Lake Clear, NY

12:22 AM EST on December 04, 2016 (GMT -0500)
Adirondack Regional

Weather History for KSLK - December, 2010

Change the Weather History Date:

Thursday, December 23, 2010

  Actual Average Record
Temperature  
Mean Temperature 20 °F 16 °F  
Max Temperature 21 °F 27 °F 58 °F (1949)
Min Temperature 18 °F 6 °F -26 °F (1989)
Degree Days  
Heating Degree Days 45 49  
Month to date heating degree days 1026  
Since 1 July heating degree days 3301  
Cooling Degree Days 0 0  
Month to date cooling degree days 0  
Year to date cooling degree days 114  
Moisture  
Dew Point 17 °F    
Average Humidity 89    
Maximum Humidity 96    
Minimum Humidity 85    
Precipitation  
Precipitation 0.05 in 0.07 in 0.88 in (1990)
Month to date precipitation 1.80  
Year to date precipitation 37.03  
Sea Level Pressure  
Sea Level Pressure 29.89 in    
Wind  
Wind Speed 4 mph (NW)    
Max Wind Speed 8 mph    
Max Gust Speed -    
Visibility 4 miles    
Events Fog , Snow    
T = Trace of Precipitation, MM = Missing Value Source: NWS Daily Summary

Daily Weather History Graph

Daily Weather History Graph

Search for Another Location

Airport or City:

Trip Planner

Search our weather history database for the weather conditions in past years. The results will help you decide how hot, cold, wet, or windy it might be!

Date:

Astronomy

Dec. 23, 2010 Rise Set
Actual Time 7:30 AM EST 4:21 PM EST
Civil Twilight 6:57 AM EST 4:54 PM EST
Nautical Twilight 6:20 AM EST 5:31 PM EST
Astronomical Twilight 5:45 AM EST 6:06 PM EST
Moon 7:17 PM EST (12/23) 9:09 AM EST (12/23)
Length of Visible Light 9h 57m
Length of Day
8h 50m
Waning Gibbous, 93% of the Moon is Illuminated
Dec 23
Waning Gibbous
Dec 27
Last Quarter
Jan 4
New
Jan 12
First Quarter
Jan 19
Full

Hourly Weather History & Observations

Time (EST) Temp. Windchill Dew Point Humidity Pressure Visibility Wind Dir Wind Speed Gust Speed Precip Events Conditions
12:31 AM 21.2 °F 14.9 °F 17.6 °F 86% 29.76 in 2.5 mi Variable 4.6 mph - 0.01 in Snow Light Snow
12:40 AM 21.2 °F 14.9 °F 17.6 °F 86% 29.76 in 3.0 mi Variable 4.6 mph - 0.01 in Snow Light Snow
12:51 AM 21.0 °F 16.2 °F 18.0 °F 88% 29.84 in 3.0 mi Variable 3.5 mph - 0.01 in Snow Light Snow
1:51 AM 21.0 °F 14.6 °F 18.0 °F 88% 29.85 in 5.0 mi Variable 4.6 mph - 0.00 in Snow Light Snow
2:51 AM 19.9 °F 12.1 °F 18.0 °F 92% 29.86 in 3.0 mi Variable 5.8 mph - 0.00 in Snow Light Snow
3:51 AM 19.9 °F 11.1 °F 18.0 °F 92% 29.86 in 4.0 mi NW 6.9 mph - 0.00 in   Overcast
4:34 AM 19.4 °F - 17.6 °F 93% 29.78 in 2.5 mi Calm Calm - 0.01 in   Overcast
4:47 AM 19.4 °F 10.4 °F 17.6 °F 93% 29.78 in 2.5 mi NW 6.9 mph - 0.01 in   Overcast
4:51 AM 19.9 °F 13.4 °F 17.1 °F 89% 29.86 in 3.0 mi NNW 4.6 mph - 0.01 in   Overcast
4:58 AM 19.4 °F 11.5 °F 17.6 °F 93% 29.78 in 2.5 mi NW 5.8 mph - 0.00 in   Overcast
5:08 AM 19.4 °F 10.4 °F 17.6 °F 93% 29.79 in 2.0 mi NW 6.9 mph - 0.00 in   Overcast
5:19 AM 19.4 °F 11.5 °F 17.6 °F 93% 29.79 in 1.8 mi Variable 5.8 mph - 0.00 in Snow Light Snow
5:27 AM 19.4 °F - 17.6 °F 93% 29.79 in 2.0 mi Calm Calm - 0.00 in Snow Light Snow
5:49 AM 19.4 °F 14.3 °F 15.8 °F 86% 29.80 in 1.8 mi Variable 3.5 mph - 0.00 in Snow Light Snow
5:51 AM 19.9 °F - 16.0 °F 85% 29.88 in 1.8 mi Calm Calm - 0.00 in Snow Light Snow
6:04 AM 19.4 °F 14.3 °F 17.6 °F 93% 29.80 in 3.0 mi Variable 3.5 mph - 0.00 in Snow Light Snow
6:19 AM 19.4 °F 12.8 °F 15.8 °F 86% 29.81 in 2.0 mi Variable 4.6 mph - 0.00 in Snow Light Snow
6:26 AM 19.4 °F - 17.6 °F 93% 29.81 in 1.8 mi Calm Calm - 0.00 in Snow Light Snow
6:41 AM 19.4 °F 14.3 °F 15.8 °F 86% 29.81 in 2.5 mi Variable 3.5 mph - 0.00 in   Overcast
6:48 AM 19.4 °F 14.3 °F 15.8 °F 86% 29.81 in 3.0 mi Variable 3.5 mph - 0.01 in   Overcast
6:51 AM 19.0 °F - 16.0 °F 88% 29.90 in 3.0 mi Calm Calm - 0.01 in   Overcast
7:24 AM 19.4 °F 12.8 °F 15.8 °F 86% 29.82 in 5.0 mi Variable 4.6 mph - 0.00 in Snow Light Snow
7:42 AM 19.4 °F 10.4 °F 15.8 °F 86% 29.83 in 4.0 mi NW 6.9 mph - 0.00 in   Overcast
7:51 AM 19.0 °F 13.9 °F 16.0 °F 88% 29.91 in 5.0 mi Variable 3.5 mph - 0.00 in   Overcast
8:06 AM 19.4 °F 12.8 °F 17.6 °F 93% 29.83 in 2.0 mi Variable 4.6 mph - 0.00 in Snow Light Snow
8:23 AM 19.4 °F 12.8 °F 15.8 °F 86% 29.84 in 1.5 mi Variable 4.6 mph - 0.00 in Snow Light Snow
8:51 AM 19.9 °F 13.4 °F 16.0 °F 85% 29.93 in 1.0 mi Variable 4.6 mph - 0.00 in Snow Light Snow
9:26 AM 19.4 °F 10.4 °F 15.8 °F 86% 29.86 in 1.5 mi NW 6.9 mph - 0.00 in Snow Light Snow
9:51 AM 19.9 °F 14.9 °F 17.1 °F 89% 29.95 in 1.5 mi Variable 3.5 mph - 0.00 in Snow Light Snow
10:51 AM 21.0 °F 14.6 °F 17.1 °F 85% 29.96 in 1.8 mi West 4.6 mph - 0.01 in Snow Light Snow
11:14 AM 19.4 °F 12.8 °F 17.6 °F 93% 29.87 in 1.0 mi Variable 4.6 mph - 0.00 in Snow Light Snow
11:22 AM 19.4 °F - 17.6 °F 93% 29.88 in 0.5 mi Calm Calm - 0.00 in Fog , Snow Snow
11:33 AM 19.4 °F 12.8 °F 17.6 °F 93% 29.87 in 0.8 mi WNW 4.6 mph - 0.01 in Snow Light Snow
11:51 AM 19.9 °F - 17.1 °F 89% 29.95 in 1.0 mi Calm Calm - 0.01 in Snow Light Snow
12:05 PM 19.4 °F 10.4 °F 17.6 °F 93% 29.87 in 1.5 mi Variable 6.9 mph - 0.00 in   Overcast
12:51 PM 21.0 °F - 17.1 °F 85% 29.96 in 1.8 mi Calm Calm - 0.00 in Snow Light Snow
1:03 PM 21.2 °F 16.4 °F 17.6 °F 86% 29.88 in 1.8 mi WNW 3.5 mph - 0.00 in   Overcast
1:11 PM 21.2 °F 13.6 °F 17.6 °F 86% 29.88 in 2.0 mi Variable 5.8 mph - 0.00 in   Overcast
1:39 PM 21.2 °F 13.6 °F 17.6 °F 86% 29.88 in 3.0 mi Variable 5.8 mph - 0.00 in   Overcast
1:51 PM 21.0 °F 14.6 °F 17.1 °F 85% 29.96 in 2.5 mi Variable 4.6 mph - 0.00 in   Overcast
2:03 PM 21.2 °F - 17.6 °F 86% 29.89 in 3.0 mi Calm Calm - N/A   Overcast
2:38 PM 19.4 °F 12.8 °F 17.6 °F 93% 29.90 in 10.0 mi Variable 4.6 mph - N/A   Overcast
2:51 PM 19.9 °F 12.1 °F 17.1 °F 89% 29.99 in 10.0 mi NW 5.8 mph - N/A   Overcast
3:51 PM 19.9 °F 12.1 °F 17.1 °F 89% 30.01 in 4.0 mi WNW 5.8 mph - N/A   Overcast
4:51 PM 19.9 °F 11.1 °F 18.0 °F 92% 30.03 in 4.0 mi West 6.9 mph - N/A   Overcast
5:51 PM 19.9 °F 11.1 °F 18.0 °F 92% 30.04 in 6.0 mi Variable 6.9 mph - N/A   Overcast
6:51 PM 19.9 °F - 18.0 °F 92% 30.05 in 10.0 mi Calm Calm - N/A   Overcast
7:51 PM 19.9 °F 13.4 °F 18.0 °F 92% 30.06 in 6.0 mi Variable 4.6 mph - N/A   Overcast
8:51 PM 19.9 °F 12.1 °F 18.0 °F 92% 30.07 in 10.0 mi Variable 5.8 mph - N/A   Overcast
9:51 PM 19.9 °F 14.9 °F 18.0 °F 92% 30.07 in 10.0 mi NNW 3.5 mph - N/A   Overcast
10:51 PM 19.0 °F 9.0 °F 17.1 °F 92% 30.08 in 10.0 mi West 8.1 mph - N/A   Overcast
11:51 PM 18.0 °F 11.1 °F 17.1 °F 96% 30.08 in 10.0 mi Variable 4.6 mph - N/A   Overcast